Stations météo

réclame
Mon MeteoGroup
Sa Pobla, Espagne (8312): Température de l'air & dewpoint: 13.10.2017 05:00:00 - 19.10.2017 05:00:00 (CEST)Sa Pobla, Espagne (8312): Vitesse du vent & gusts: 13.10.2017 05:00:00 - 19.10.2017 05:00:00 (CEST)Sa Pobla, Espagne (8312): Direction du vent: 13.10.2017 05:00:00 - 19.10.2017 05:00:00 (CEST)Sa Pobla, Espagne (8312): reduced air pressure: 13.10.2017 05:00:00 - 19.10.2017 05:00:00 (CEST)Sa Pobla, Espagne (8312): visibility: 13.10.2017 05:00:00 - 19.10.2017 05:00:00 (CEST)Sa Pobla, Espagne (8312): Ensoleillement: 13.10.2017 05:00:00 - 19.10.2017 05:00:00 (CEST)Sa Pobla, Espagne (8312): Quantités de précipitations: 13.10.2017 05:00:00 - 19.10.2017 05:00:00 (CEST)
Date & Time tt [°C] td [°C] ff [km/h] ff [knt] fx [km/h] fx [knt] dd ppp [hPa] vv [km] sd [min] rr [mm]
19.10.2017 05:00:00 17,4 16,2 5 3 9 5 N 1012,1 16 0 0,0
19.10.2017 04:00:00 17,8 16,1 4 2 11 6 W 1012,4 13 0 0,2
19.10.2017 03:00:00 18,3 15,0 9 5 30 16 S 1013,6 20 0 0,0
19.10.2017 02:00:00 19,6 14,8 16 9 40 22 SSW 1013,6 20 0 -
19.10.2017 01:00:00 19,9 17,9 12 7 26 14 S 1012,7 20 0 0,0
19.10.2017 00:00:00 17,2 15,0 2 1 4 2 S 1013,3 16 0 0,0
18.10.2017 23:00:00 18,0 15,1 1 1 6 3 WSW 1013,9 19 0 0,0
18.10.2017 22:00:00 19,2 15,1 4 2 7 4 S 1013,9 20 0 0,0
18.10.2017 21:00:00 20,6 15,3 4 2 9 5 SSW 1013,6 20 0 0,0
18.10.2017 20:00:00 22,5 15,8 1 1 17 9 S 1012,6 20 0 -
18.10.2017 19:00:00 23,7 15,2 9 5 27 14 S 1013,0 20 0 0,0
18.10.2017 18:00:00 25,6 12,4 13 7 29 16 S 1012,9 20 30 0,0
18.10.2017 17:00:00 27,4 12,6 15 8 29 16 S 1012,9 20 58 0,0
18.10.2017 16:00:00 27,0 13,0 12 7 31 17 SSE 1013,4 20 60 0,0
18.10.2017 15:00:00 27,1 14,5 13 7 29 16 SSE 1014,2 20 60 0,0
18.10.2017 14:00:00 27,9 14,9 14 7 24 13 S 1015,1 20 60 -
18.10.2017 13:00:00 25,6 16,5 9 5 20 11 SW 1016,2 20 60 0,0
18.10.2017 12:00:00 23,0 18,3 7 4 14 8 SW 1016,8 20 18 0,0
18.10.2017 11:00:00 21,9 18,3 9 5 16 9 S 1017,3 20 12 0,0
18.10.2017 10:00:00 19,7 17,6 5 3 12 7 S 1017,7 20 49 0,0
18.10.2017 09:00:00 15,9 15,1 5 3 8 5 SSE 1017,8 10 2 0,0
18.10.2017 08:00:00 15,6 14,8 5 3 13 7 SSE 1017,8 10 0 -
18.10.2017 07:00:00 14,7 14,0 6 3 10 6 S 1018,1 11 0 0,0
18.10.2017 06:00:00 14,3 13,6 3 2 9 5 SSE 1018,2 9 0 0,0
18.10.2017 05:00:00 14,2 13,5 5 3 9 5 S 1018,7 7 0 0,0
18.10.2017 04:00:00 14,6 13,9 7 4 10 5 S 1019,2 8 0 0,0
18.10.2017 03:00:00 15,0 14,0 4 2 10 6 SSW 1020,2 8 0 0,0
18.10.2017 02:00:00 15,1 14,1 5 3 9 5 S 1020,4 8 0 -
18.10.2017 01:00:00 15,5 14,3 4 2 9 5 S 1020,5 10 0 0,0
18.10.2017 00:00:00 15,7 14,0 4 2 6 3 S 1020,9 11 0 0,0
17.10.2017 23:00:00 16,8 14,8 4 2 6 3 S 1021,2 13 0 0,0
17.10.2017 22:00:00 18,2 15,6 1 1 7 4 NNW 1021,1 16 0 0,0
17.10.2017 21:00:00 19,6 16,0 4 2 7 4 S 1021,1 19 0 0,0
17.10.2017 20:00:00 21,3 16,2 4 2 15 8 SSE 1021,1 7 0 -
17.10.2017 19:00:00 22,4 16,0 8 4 21 11 SE 1021,0 20 0 0,0
17.10.2017 18:00:00 23,8 15,8 16 8 26 14 ESE 1021,0 20 47 0,0
17.10.2017 17:00:00 25,4 15,4 14 8 21 11 ESE 1021,0 20 12 0,0
17.10.2017 16:00:00 24,7 15,9 10 6 22 12 NE 1021,4 20 9 0,0
17.10.2017 15:00:00 25,7 16,6 11 6 22 12 NE 1022,1 20 25 0,0
17.10.2017 14:00:00 25,9 16,1 8 4 17 9 ENE 1023,1 20 37 -
17.10.2017 13:00:00 24,7 15,6 5 3 14 8 E 1023,9 20 39 0,0
17.10.2017 12:00:00 24,7 16,4 7 4 15 8 E 1024,4 20 59 0,0
17.10.2017 11:00:00 22,8 16,6 3 1 8 4 N 1024,9 20 54 0,0
17.10.2017 10:00:00 18,0 15,4 5 3 7 4 SSE 1025,0 20 60 0,0
17.10.2017 09:00:00 14,7 13,6 4 2 9 5 S 1024,7 18 37 0,0
17.10.2017 08:00:00 13,6 12,6 7 4 9 5 S 1024,5 12 0 -
17.10.2017 07:00:00 13,9 13,0 5 3 9 5 SW 1024,3 20 0 0,0
17.10.2017 06:00:00 14,0 12,7 4 2 11 6 S 1024,7 15 0 0,0
17.10.2017 05:00:00 14,3 13,2 6 3 8 5 WSW 1024,8 16 0 0,0
17.10.2017 04:00:00 14,7 13,6 5 3 9 5 S 1025,3 19 0 0,0
17.10.2017 03:00:00 14,1 12,8 5 3 9 5 S 1025,8 16 0 0,0
17.10.2017 02:00:00 14,6 13,2 5 3 7 4 S 1026,1 16 0 -
17.10.2017 01:00:00 15,0 13,1 3 2 5 3 S 1026,4 19 0 0,0
17.10.2017 00:00:00 16,4 13,7 4 2 5 3 SSW 1026,5 20 0 0,0
16.10.2017 23:00:00 17,3 13,9 2 1 7 4 S 1026,7 20 0 0,0
16.10.2017 22:00:00 18,3 15,0 6 4 8 5 NW 1026,4 20 0 0,0
16.10.2017 21:00:00 18,4 14,5 5 3 6 4 NNW 1026,3 18 0 0,0
16.10.2017 20:00:00 20,2 14,5 3 1 12 7 NE 1026,2 14 0 -
16.10.2017 19:00:00 22,6 14,7 7 4 18 10 E 1026,0 20 35 0,0
16.10.2017 18:00:00 24,0 15,0 10 5 24 13 NE 1025,8 20 60 0,0
16.10.2017 17:00:00 25,0 14,7 11 6 28 15 NE 1025,9 20 60 0,0
16.10.2017 16:00:00 25,2 14,0 14 8 23 12 NE 1026,2 20 57 0,0
16.10.2017 15:00:00 24,9 14,0 12 7 22 12 NNE 1026,7 20 49 0,0
16.10.2017 14:00:00 25,1 13,9 8 5 17 9 NE 1027,2 20 41 -
16.10.2017 13:00:00 25,3 14,1 8 4 17 9 NE 1027,9 20 33 0,0
16.10.2017 12:00:00 23,6 13,8 6 3 16 8 ENE 1028,0 10 13 0,0
16.10.2017 11:00:00 22,8 14,1 6 3 13 7 NE 1028,2 20 23 0,0
16.10.2017 10:00:00 19,8 16,0 4 2 7 4 S 1028,0 20 7 0,0
16.10.2017 09:00:00 17,1 14,9 3 2 13 7 SSW 1027,5 20 14 0,0
16.10.2017 08:00:00 16,2 14,0 3 1 6 3 SSE 1027,0 20 0 -
16.10.2017 07:00:00 16,7 14,3 3 1 8 4 SSW 1026,9 20 0 0,0
16.10.2017 06:00:00 16,9 14,3 4 2 9 5 S 1027,0 20 0 0,0
16.10.2017 05:00:00 16,8 14,2 5 3 9 5 S 1027,1 20 0 0,0
16.10.2017 04:00:00 16,4 14,0 3 2 8 4 SW 1027,3 20 0 0,0
16.10.2017 03:00:00 16,7 14,1 4 2 9 5 S 1027,6 20 0 0,0
16.10.2017 02:00:00 16,6 14,0 6 3 10 5 SSW 1027,9 20 0 -
16.10.2017 01:00:00 16,5 14,1 3 2 5 3 S 1028,2 20 0 0,0
16.10.2017 00:00:00 16,0 13,5 3 2 6 3 SSE 1028,3 20 0 0,0
15.10.2017 23:00:00 16,1 13,9 4 2 6 4 W 1028,3 15 0 0,0
15.10.2017 22:00:00 16,6 13,7 5 3 6 4 W 1028,3 15 0 0,0
15.10.2017 21:00:00 18,1 14,0 2 1 8 4 WNW 1028,1 20 0 0,0
15.10.2017 20:00:00 20,2 14,3 5 3 11 6 E 1027,9 20 0 -
15.10.2017 19:00:00 22,0 14,4 10 5 22 12 ESE 1027,4 20 37 0,0
15.10.2017 18:00:00 24,2 14,3 15 8 24 13 ESE 1027,2 20 60 0,0
15.10.2017 17:00:00 25,7 14,1 16 9 23 12 ESE 1027,1 20 60 0,0
15.10.2017 16:00:00 26,6 14,7 10 5 22 12 SE 1027,2 20 60 0,0
15.10.2017 15:00:00 26,7 14,8 12 6 20 11 ESE 1027,4 20 58 0,0
15.10.2017 14:00:00 26,6 15,3 6 4 22 12 E 1028,2 20 56 -
15.10.2017 13:00:00 24,8 14,5 8 4 18 10 SE 1029,1 20 30 0,0
15.10.2017 12:00:00 23,5 15,3 10 5 18 10 ESE 1029,4 20 28 0,0
15.10.2017 11:00:00 21,4 17,0 2 1 6 3 SW 1029,7 20 4 0,0
15.10.2017 10:00:00 17,8 16,3 4 2 9 5 S 1029,4 20 8 0,0
15.10.2017 09:00:00 15,4 14,4 5 3 10 5 SSW 1029,0 20 0 0,0
15.10.2017 08:00:00 14,7 13,8 6 3 10 6 SSW 1028,7 20 0 -
15.10.2017 07:00:00 14,1 13,2 7 4 9 5 S 1028,7 20 0 0,0
15.10.2017 06:00:00 14,3 13,4 6 4 9 5 SSW 1028,5 20 0 0,0
15.10.2017 05:00:00 14,5 13,4 6 3 9 5 S 1028,3 20 0 0,0
15.10.2017 04:00:00 14,5 13,4 5 3 9 5 S 1028,3 20 0 0,0
15.10.2017 03:00:00 14,9 13,7 4 2 9 5 S 1028,7 20 0 0,0
15.10.2017 02:00:00 15,5 14,0 5 3 10 5 S 1028,8 20 0 -
15.10.2017 01:00:00 16,6 15,0 5 3 9 5 SW 1028,8 20 0 0,0
15.10.2017 00:00:00 16,9 14,7 4 2 10 5 SSW 1028,8 20 0 0,0
14.10.2017 23:00:00 17,8 15,3 5 3 9 5 WSW 1028,7 20 0 0,0
14.10.2017 22:00:00 18,7 15,2 3 2 7 4 WSW 1028,6 20 0 0,0
14.10.2017 21:00:00 20,0 15,4 3 2 13 7 SW 1028,1 15 0 0,0
14.10.2017 20:00:00 21,3 15,3 6 4 16 8 SSE 1027,7 20 0 -
14.10.2017 19:00:00 22,9 15,0 10 6 19 10 SSE 1027,2 20 36 0,0
14.10.2017 18:00:00 24,9 15,3 12 7 25 13 SE 1026,9 20 60 0,0
14.10.2017 17:00:00 26,3 15,3 17 9 26 14 ESE 1026,7 20 60 0,0
14.10.2017 16:00:00 27,4 15,4 13 7 22 12 SE 1026,7 20 60 0,0
14.10.2017 15:00:00 27,5 15,5 6 4 18 10 ESE 1026,9 20 56 0,0
14.10.2017 14:00:00 27,0 15,1 7 4 19 10 S 1027,6 20 57 -
14.10.2017 13:00:00 25,9 16,1 9 5 17 9 SE 1028,3 20 51 0,0
14.10.2017 12:00:00 24,7 16,9 6 4 17 9 SSE 1028,6 20 60 0,0
14.10.2017 11:00:00 23,4 17,1 8 4 14 8 S 1028,6 20 60 0,0
14.10.2017 10:00:00 19,3 16,3 5 3 9 5 S 1028,3 20 60 0,0
14.10.2017 09:00:00 15,0 13,9 5 3 11 6 S 1027,8 20 46 0,0
14.10.2017 08:00:00 13,0 12,1 6 3 10 6 S 1027,4 20 0 -
14.10.2017 07:00:00 13,2 12,2 5 3 10 5 S 1027,2 20 0 0,0
14.10.2017 06:00:00 13,3 12,3 8 4 10 6 S 1027,2 20 0 0,0
14.10.2017 05:00:00 13,7 12,6 6 3 9 5 S 1027,2 20 0 0,0
14.10.2017 04:00:00 14,1 12,3 5 3 9 5 S 1027,2 20 0 0,0
14.10.2017 03:00:00 15,1 14,1 6 4 9 5 SSW 1027,5 20 0 0,0
14.10.2017 02:00:00 15,6 14,4 5 3 8 5 SSW 1027,6 18 0 -
14.10.2017 01:00:00 16,4 15,1 4 2 9 5 SW 1027,4 20 0 0,0
14.10.2017 00:00:00 17,2 15,7 6 3 9 5 SSW 1027,5 20 0 0,0
13.10.2017 23:00:00 18,1 16,2 6 4 10 6 SSW 1027,2 20 0 0,0
13.10.2017 22:00:00 19,0 16,6 5 3 12 6 S 1027,1 20 0 0,0
13.10.2017 21:00:00 20,5 16,7 8 5 17 9 SSW 1026,6 20 0 0,0
13.10.2017 20:00:00 22,1 16,4 10 5 17 9 SSW 1026,5 20 0 -
13.10.2017 19:00:00 24,2 16,2 9 5 23 13 SSW 1026,2 20 47 0,0
13.10.2017 18:00:00 26,7 15,4 12 6 22 12 SSW 1025,7 20 60 0,0
13.10.2017 17:00:00 28,1 13,9 10 5 21 11 SSW 1025,6 20 60 0,0
13.10.2017 16:00:00 28,4 14,2 8 5 24 13 SW 1025,8 20 60 0,0
13.10.2017 15:00:00 28,1 14,3 9 5 19 10 SW 1026,3 20 60 0,0
13.10.2017 14:00:00 27,4 15,1 9 5 22 12 SSW 1026,9 20 60 -
13.10.2017 13:00:00 26,4 15,2 9 5 22 12 SW 1027,8 20 60 0,0
13.10.2017 12:00:00 25,3 17,0 10 5 21 11 SSW 1028,1 20 60 0,0
13.10.2017 11:00:00 23,5 18,8 8 4 16 9 SSW 1028,1 20 60 0,0
13.10.2017 10:00:00 20,1 18,1 3 1 6 4 SSE 1028,0 20 60 0,0
13.10.2017 09:00:00 15,9 15,3 1 1 9 5 NNW 1027,6 16 47 0,0
13.10.2017 08:00:00 14,1 13,5 4 2 11 6 S 1027,2 15 0 -
13.10.2017 07:00:00 14,5 13,9 6 3 9 5 SSW 1027,1 19 0 0,0
13.10.2017 06:00:00 13,8 13,1 2 1 9 5 WNW 1027,2 11 0 0,0
13.10.2017 05:00:00 14,0 13,1 1 1 8 4 SSE 1027,2 15 0 0,0

tt = Température de l'air
td = dewpoint
ff = Vitesse du vent
fx = gusts
dd = Direction du vent
ppp = reduced air pressure
vv = visibility
sd = Ensoleillement
rr = Quantités de précipitations

stations d'obs. à proximité